�������r�C�����j�^�v���󋵏��
Date,Time,5�C6���@���p�r�C��,����,����(m/s)
2021/03/26,00:00,4.1,���k��,2.5
2021/03/26,00:10,3.9,�k��,2.0
2021/03/26,00:20,4.1,���k��,2.0
2021/03/26,00:30,3.9,�k�k��,1.7
2021/03/26,00:40,4.0,�k�k��,1.9
2021/03/26,00:50,4.0,�k��,3.7
2021/03/26,01:00,4.1,�k��,2.3
2021/03/26,01:10,4.0,�k��,4.1
2021/03/26,01:20,4.0,�k�k��,3.0
2021/03/26,01:30,4.0,�k��,3.6
2021/03/26,01:40,3.9,�k��,5.1
2021/03/26,01:50,3.9,�k��,5.0
2021/03/26,02:00,3.9,�k�k��,5.5
2021/03/26,02:10,4.0,�k,2.6
2021/03/26,02:20,3.9,�k,1.9
2021/03/26,02:30,4.0,�k,2.5
2021/03/26,02:40,4.1,�k�k��,3.3
2021/03/26,02:50,4.0,�k�k��,3.1
2021/03/26,03:00,3.9,�k��,4.7
2021/03/26,03:10,4.0,�k�k��,4.0
2021/03/26,03:20,3.9,�k��,4.2
2021/03/26,03:30,4.1,�k��,5.7
2021/03/26,03:40,4.0,�k��,5.6
2021/03/26,03:50,4.0,�k�k��,4.5
2021/03/26,04:00,4.0,�k��,4.7
2021/03/26,04:10,4.0,�k��,4.0
2021/03/26,04:20,3.9,�k��,3.2
2021/03/26,04:30,4.1,���k��,5.1
2021/03/26,04:40,3.9,���k��,5.7
2021/03/26,04:50,4.1,�k��,5.0
2021/03/26,05:00,3.9,�k�k��,5.4
2021/03/26,05:10,3.8,�k�k��,6.6
2021/03/26,05:20,4.2,�k�k��,5.3
2021/03/26,05:30,4.0,�k�k��,6.1
2021/03/26,05:40,4.0,�k�k��,6.9
2021/03/26,05:50,4.0,�k,6.8
2021/03/26,06:00,4.0,�k,4.7
2021/03/26,06:10,3.9,�k�k��,3.5
2021/03/26,06:20,4.0,�k�k��,2.3
2021/03/26,06:30,3.9,�k��,2.2
2021/03/26,06:40,3.8,���k��,4.1
2021/03/26,06:50,3.9,���k��,2.5
2021/03/26,07:00,3.9,�k��,2.2
2021/03/26,07:10,4.0,�k��,1.5
2021/03/26,07:20,3.9,�k�k��,1.1
2021/03/26,07:30,4.0,�k�k��,0.8
2021/03/26,07:40,4.0,�k�k��,1.7
2021/03/26,07:50,4.0,�k�k��,1.7
2021/03/26,08:00,3.9,�k�k��,2.8
2021/03/26,08:10,4.0,�k,2.2
2021/03/26,08:20,4.1,�k,2.0
2021/03/26,08:30,4.0,�k�k��,2.0
2021/03/26,08:40,4.0,�k,2.6
2021/03/26,08:50,4.0,�k,2.0
2021/03/26,09:00,4.0,�k�k��,3.9
2021/03/26,09:10,3.9,���k��,5.7
2021/03/26,09:20,4.0,�k��,6.1
2021/03/26,09:30,3.9,���k��,5.2
2021/03/26,09:40,4.1,���k��,3.9
2021/03/26,09:50,4.1,�k��,6.1
2021/03/26,10:00,3.9,�k�k��,7.8
2021/03/26,10:10,3.8,�k��,7.2
2021/03/26,10:20,3.9,�k��,6.1
2021/03/26,10:30,3.8,�k��,6.8
2021/03/26,10:40,4.0,�k��,7.0
2021/03/26,10:50,3.9,�k��,6.6
2021/03/26,11:00,3.9,�k��,6.0
2021/03/26,11:10,4.0,�k��,8.0
2021/03/26,11:20,3.9,���k��,4.9
2021/03/26,11:30,4.0,�k��,7.7
2021/03/26,11:40,4.1,�k��,7.1
2021/03/26,11:50,4.0,�k��,6.2
2021/03/26,12:00,4.0,�k��,7.5
2021/03/26,12:10,3.8,�k��,6.1
2021/03/26,12:20,3.9,�k��,6.6
2021/03/26,12:30,4.1,���k��,8.1
2021/03/26,12:40,4.0,�k��,6.8
2021/03/26,12:50,3.9,�k��,7.8
2021/03/26,13:00,4.1,�k��,8.4
2021/03/26,13:10,3.9,�k��,7.4
2021/03/26,13:20,4.1,�k�k��,4.3
2021/03/26,13:30,4.0,���k��,1.9
2021/03/26,13:40,4.0,��쓌,2.3
2021/03/26,13:50,4.0,��쓌,1.5
2021/03/26,14:00,3.9,���k��,5.9
2021/03/26,14:10,3.9,���k��,6.3
2021/03/26,14:20,3.9,�k��,8.0
2021/03/26,14:30,4.0,�k��,7.8
2021/03/26,14:40,4.0,���k��,6.2
2021/03/26,14:50,3.9,���k��,6.2
2021/03/26,15:00,4.0,��,6.4
2021/03/26,15:10,4.0,��,6.5
2021/03/26,15:20,4.0,���k��,6.6
2021/03/26,15:30,3.9,�k��,6.1
2021/03/26,15:40,4.0,�k��,6.6
2021/03/26,15:50,4.0,���k��,6.4
2021/03/26,16:00,4.0,�k��,8.5
2021/03/26,16:10,4.0,�k��,10.2
2021/03/26,16:20,4.0,���k��,8.7
2021/03/26,16:30,3.9,�k��,11.7
2021/03/26,16:40,3.8,�k��,9.2
2021/03/26,16:50,4.0,�k��,5.8
2021/03/26,17:00,3.9,�k�k��,6.6
2021/03/26,17:10,3.8,�k�k��,9.2
2021/03/26,17:20,4.0,�k��,8.9
2021/03/26,17:30,4.0,�k��,6.9
2021/03/26,17:40,4.0,�k��,8.7
2021/03/26,17:50,4.1,�k��,10.3
2021/03/26,18:00,4.0,�k��,12.2
2021/03/26,18:10,4.0,�k��,9.9
2021/03/26,18:20,4.0,�k��,9.8
2021/03/26,18:30,4.2,�k�k��,6.6
2021/03/26,18:40,4.0,�k��,7.4
2021/03/26,18:50,4.0,�k�k��,6.9
2021/03/26,19:00,4.0,�k�k��,7.0
2021/03/26,19:10,4.0,�k�k��,7.2
2021/03/26,19:20,3.9,�k�k��,4.9
2021/03/26,19:30,4.0,�k�k��,5.6
2021/03/26,19:40,4.0,�k�k��,6.6
2021/03/26,19:50,3.9,�k��,6.5
2021/03/26,20:00,4.0,�k��,6.4
2021/03/26,20:10,4.1,�k��,5.0
2021/03/26,20:20,3.9,�k�k��,6.3
2021/03/26,20:30,4.0,�k�k��,6.2
2021/03/26,20:40,4.0,�k��,6.7
2021/03/26,20:50,3.9,���k��,4.8
2021/03/26,21:00,4.1,�k�k��,3.1
2021/03/26,21:10,3.8,�k��,5.8
2021/03/26,21:20,3.8,���k��,4.7
2021/03/26,21:30,3.9,���k��,4.3
2021/03/26,21:40,4.0,���k��,5.7
2021/03/26,21:50,4.0,���k��,8.5
2021/03/26,22:00,3.9,���k��,7.6
2021/03/26,22:10,4.0,���k��,7.0
2021/03/26,22:20,4.1,�k��,6.7
2021/03/26,22:30,4.1,���k��,7.3
2021/03/26,22:40,4.1,�k��,6.0
2021/03/26,22:50,3.8,�k��,6.2
2021/03/26,23:00,4.0,�k��,7.5
2021/03/26,23:10,3.8,�k��,5.5
2021/03/26,23:20,4.2,�k�k��,4.6
2021/03/26,23:30,3.8,�k��,5.8
2021/03/26,23:40,3.9,�k��,6.8
2021/03/26,23:50,4.1,�k��,6.4
